Location: Unspecified
(48.2082°N, 0.0000°E)
Time: 17:10:04
(UTC+00:00)

A-11 Canister half - Pass Details

Date: 28 June 2019
Orbit: 1514 x 1685 km, 47.2° (Epoch: 17 July)

Event Time Altitude Azimuth Distance (km) Brightness Sun altitude
Rises 09:09:15 0° 229° (SW) 4,923 11.5 47.6°
Reaches altitude 10° 09:12:30 10° 226° (SW) 3,926 11.1 48.1°
Maximum altitude 09:22:15 58° 151° (SSE) 1,875 11.0 49.6°
Drops below altitude 10° 09:31:44 10° 76° (ENE) 3,822 11.7 51.1°
Sets 09:34:50 0° 73° (ENE) 4,786 12.0 51.5°
